Погода в Давыдовке

Россия / Самарская область     52°45′00″N   48°24′40″E
темп.,
°C
ветер,
м/с
пор.,
м/с
влажн.,
%
обл.,
%
осадки,
мм/ч
давл.,
гПа
погр.,
м
13 апреля, вт
вт1301:00+11в2272100 0.0 103412
04:00+9всв227992 0.0 103414
07:00+8в227861 0.0 103421
10:00+14вюв465155 0.0 1034447
13:00+18юв56385 0.0 10331026
16:00+20юв56314 0.0 10321130
19:00+16вюв35495 0.0 103171
22:00+12юв34634 0.0 103161
14 апреля, ср
ср1401:00+9юв22655 0.0 103116
04:00+7в22704 0.0 103013
07:00+7в23872 0.0 102941
10:00+13вюв46655 0.0 1028522
13:00+17вюв57475 0.0 10261072
16:00+19юв56444 0.0 10251362
19:00+16юв36602 0.0 1023110
22:00+12вюв34740 0.0 102355
15 апреля, чт
чт1501:00+10вюв22820 0.0 102219
04:00+9в12840 0.0 102211
07:00+9всв22810 0.0 102124
10:00+14в34570 0.0 1021372
13:00+19вюв34441 0.0 1019938
16:00+21юв44350 0.0 10181807
19:00+18юв3350100 0.0 101739
22:00+14юв226099 0.0 101717
16 апреля, пт
пт1601:00+12вюв116443 0.0 101611
04:00+11св226630 0.0 101611
07:00+11св226712 0.0 101621
10:00+16св234764 0.0 1016371
13:00+19св333762 0.0 10151375
16:00+20св343562 0.0 10152384
19:00+17св595360 0.0 1015283
22:00+13ссв6116837 0.0 1017402
17 апреля, сб
сб1701:00+11ссв61181100 0.0 1017444
04:00+8ссв6118259 0.0 1019430
07:00+7ссв611805 0.0 1020477
10:00+10ссв810515 0.0 1021876
13:00+12ссв810365 0.0 10221404
16:00+12ссв810340 0.0 10221645
19:00+10ссв811420 0.0 10241005
22:00+6св713452 0.0 1026770